Weather History for KHGR - May, 2013

Change the Weather History Date:

Tuesday, May 28, 2013

  Actual Average Record
Temperature  
Mean Temperature 67 °F 66 °F  
Max Temperature 77 °F 76 °F 89 °F (2012)
Min Temperature 56 °F 56 °F 46 °F (1997)
Degree Days  
Heating Degree Days 0 3  
Month to date heating degree days 143 147  
Since 1 July heating degree days 4927 5161  
Cooling Degree Days 2 3  
Month to date cooling degree days 55 48  
Year to date cooling degree days 81 63  
Growing Degree Days 15 (Base 50)    
Moisture  
Dew Point 56 °F    
Average Humidity 73    
Maximum Humidity 86    
Minimum Humidity 60    
Precipitation  
Precipitation 0.05 in 0.14 in 0.68 in (2000)
Month to date precipitation 1.90 3.60  
Year to date precipitation 9.86 15.77  
Sea Level Pressure  
Sea Level Pressure 30.15 in    
Wind  
Wind Speed 3 mph (NNW)    
Max Wind Speed 12 mph    
Max Gust Speed 15 mph    
Visibility 8 miles    
Events Rain    
T = Trace of Precipitation, MM = Missing Value Source: NWS Daily Summary

Daily Weather History Graph

Daily Weather History Graph

Search for Another Location

Airport or City:

Trip Planner

Search our weather history database for the weather conditions in past years. The results will help you decide how hot, cold, wet, or windy it might be!

Date:

Astronomy

May. 28, 2013 Rise Set
Actual Time 5:46 AM EDT 8:30 PM EDT
Civil Twilight 5:15 AM EDT 9:01 PM EDT
Nautical Twilight 4:35 AM EDT 9:41 PM EDT
Astronomical Twilight 3:50 AM EDT 10:26 PM EDT
Moon 11:52 PM EDT (5/28) 9:32 AM EDT (5/28)
Length of Visible Light 15h 46m
Length of Day
14h 43m
Waning Gibbous, 83% of the Moon is Illuminated
May 28
Waning Gibbous
May 31
Last Quarter
Jun 8
New
Jun 16
First Quarter
Jun 23
Full

Hourly Weather History & Observations

Time (EDT) Temp. Dew Point Humidity Pressure Visibility Wind Dir Wind Speed Gust Speed Precip Events Conditions
12:53 AM 57.9 °F 50.0 °F 75% 30.22 in 10.0 mi Calm Calm - N/A   Clear
1:53 AM 57.9 °F 50.0 °F 75% 30.21 in 10.0 mi Calm Calm - N/A   Partly Cloudy
2:53 AM 59.0 °F 48.9 °F 69% 30.19 in 10.0 mi Calm Calm - 0.00 in Rain Light Rain
3:53 AM 59.0 °F 48.0 °F 67% 30.18 in 10.0 mi Calm Calm - 0.00 in   Mostly Cloudy
4:53 AM 57.9 °F 51.1 °F 78% 30.19 in 10.0 mi Calm Calm - N/A   Overcast
5:53 AM 57.9 °F 48.9 °F 72% 30.20 in 10.0 mi WNW 5.8 mph - 0.00 in   Overcast
6:53 AM 57.9 °F 50.0 °F 75% 30.20 in 10.0 mi Calm Calm - 0.00 in   Overcast
7:53 AM 57.0 °F 53.1 °F 87% 30.19 in 10.0 mi NNW 4.6 mph - 0.00 in   Scattered Clouds
8:53 AM 57.0 °F 54.0 °F 89% 30.22 in 9.0 mi NNW 10.4 mph - N/A   Overcast
9:53 AM 55.9 °F 54.0 °F 93% 30.19 in 6.0 mi ENE 3.5 mph - 0.04 in Rain Light Rain
10:53 AM 59.0 °F 55.9 °F 90% 30.19 in 7.0 mi NW 5.8 mph - 0.01 in   Mostly Cloudy
11:53 AM 63.0 °F 57.0 °F 81% 30.18 in 10.0 mi Calm Calm - N/A   Scattered Clouds
12:53 PM 64.9 °F 57.0 °F 75% 30.17 in 10.0 mi Calm Calm - N/A   Clear
1:53 PM 68.0 °F 57.9 °F 70% 30.17 in 9.0 mi Calm Calm - N/A   Clear
2:53 PM 72.0 °F 59.0 °F 64% 30.13 in 8.0 mi Variable 4.6 mph - N/A   Clear
3:53 PM 75.0 °F 61.0 °F 62% 30.12 in 9.0 mi South 6.9 mph - N/A   Partly Cloudy
4:53 PM 75.9 °F 60.1 °F 58% 30.11 in 10.0 mi South 4.6 mph - N/A   Clear
5:53 PM 75.0 °F 61.0 °F 62% 30.11 in 10.0 mi South 3.5 mph - N/A   Mostly Cloudy
6:53 PM 73.0 °F 62.1 °F 68% 30.10 in 10.0 mi North 4.6 mph - N/A   Overcast
7:53 PM 72.0 °F 64.0 °F 76% 30.09 in 6.0 mi ENE 5.8 mph - N/A   Haze
8:53 PM 69.1 °F 63.0 °F 81% 30.08 in 6.0 mi ENE 3.5 mph - N/A   Haze
9:53 PM 64.9 °F 62.1 °F 90% 30.10 in 4.0 mi NW 5.8 mph - N/A   Clear
10:51 PM 62.6 °F 60.8 °F 94% 30.08 in 2.5 mi NW 5.8 mph - N/A   Clear
10:53 PM 62.1 °F 61.0 °F 96% 30.11 in 2.5 mi NW 5.8 mph - N/A   Clear
11:53 PM 62.1 °F 61.0 °F 96% 30.11 in 1.8 mi NNW 3.5 mph - N/A   Clear